This is the latest recevied weather packets stored in our database for station/object 4S6DRJ-13. If no packets are shown the sender has not sent any weather packets the latest 10 day(s).
| Time | Temp. | Humidity | Pressure | Rain* | Wind** | Luminosity | Snow |
|---|---|---|---|---|---|---|---|
| 1787921302 | 28.89° C | 82% | 1008.5 hPa | 0 mm | 0.89 m/s, 200° | 3 W/m² | - |
| 1787921241 | 28.89° C | 82% | 1008.3 hPa | 0 mm | 1.79 m/s, 271° | 3 W/m² | - |
| 1787921180 | 28.89° C | 82% | 1008.4 hPa | 0 mm | 0.89 m/s, 235° | 4 W/m² | - |
| 1787921119 | 28.89° C | 82% | 1008.4 hPa | 0 mm | 1.34 m/s, 257° | 4 W/m² | - |
| 1787921058 | 28.89° C | 81% | 1008.4 hPa | 0 mm | 0.89 m/s, 276° | 5 W/m² | - |
| 1787920997 | 28.89° C | 81% | 1008.2 hPa | 0 mm | 0.89 m/s, 260° | 6 W/m² | - |
| 1787920944 | 28.89° C | 81% | 1008.5 hPa | 0 mm | 2.24 m/s, 226° | 7 W/m² | - |
| 1787920875 | 28.89° C | 81% | 1008.4 hPa | 0 mm | 1.79 m/s, 49° | 8 W/m² | - |
| 1787920814 | 28.89° C | 81% | 1008.5 hPa | 0 mm | 1.34 m/s, 235° | 9 W/m² | - |
| 1787920753 | 28.89° C | 81% | 1008.5 hPa | 0 mm | 0.89 m/s, 311° | 11 W/m² | - |
| 1787920692 | 28.89° C | 81% | 1008.3 hPa | 0 mm | 0.89 m/s, 236° | 12 W/m² | - |
| 1787920631 | 28.89° C | 81% | 1008.2 hPa | 0 mm | 2.68 m/s, 278° | 12 W/m² | - |
| 1787920571 | 28.89° C | 81% | 1008.3 hPa | 0 mm | 0.45 m/s, 207° | 13 W/m² | - |
| 1787920509 | 28.89° C | 81% | 1008.4 hPa | 0 mm | 1.34 m/s, 201° | 13 W/m² | - |
| 1787920448 | 28.89° C | 81% | 1008.3 hPa | 0 mm | 1.34 m/s, 295° | 13 W/m² | - |
| 1787920387 | 28.89° C | 81% | 1008.3 hPa | 0 mm | 1.34 m/s, 322° | 14 W/m² | - |
| 1787920326 | 28.89° C | 81% | 1008.3 hPa | 0 mm | 1.34 m/s, 264° | 14 W/m² | - |
| 1787920265 | 28.89° C | 81% | 1008.3 hPa | 0 mm | 1.79 m/s, 161° | 15 W/m² | - |
| 1787920204 | 28.89° C | 81% | 1008.3 hPa | 0 mm | 1.34 m/s, 2° | 16 W/m² | - |
| 1787920143 | 28.89° C | 81% | 1008.5 hPa | 0 mm | 0.89 m/s, 185° | 17 W/m² | - |
| 1787920084 | 28.89° C | 81% | 1008.5 hPa | 0 mm | 2.24 m/s, 286° | 19 W/m² | - |
| 1787920021 | 28.89° C | 81% | 1008.2 hPa | 0 mm | 1.79 m/s, 337° | 20 W/m² | - |
| 1787919961 | 28.89° C | 81% | 1008.3 hPa | 0 mm | 2.68 m/s, 220° | 20 W/m² | - |
| 1787919899 | 28.89° C | 81% | 1008.3 hPa | 0 mm | 0.45 m/s, 233° | 22 W/m² | - |
| 1787919840 | 28.89° C | 81% | 1008.3 hPa | 0 mm | 2.24 m/s, 242° | 24 W/m² | - |
* Rain latest hour (hover to see other rain measurements)
** Current wind speed in m/s (hover to see current wind gust speed)